| time (UTC) | temp F | wind direction | speed MPH | gust MPH | rain 1hr in | rain 24hr in | rain mn in | humidity % | barometer mb |
| 20260831030526 | 57 | 263 | 0.0 | 1.0 | 0.00 | 0.00 | 0.00 | 74 | 1008.5 |
| 20260831030029 | 57 | 263 | 0.0 | 0.0 | 0.00 | 0.00 | 0.00 | 74 | 1008.7 |
| 20260831025525 | 57 | 263 | 0.0 | 0.0 | 0.00 | 0.00 | 0.00 | 74 | 1008.5 |
| 20260831025023 | 57 | 263 | 0.0 | 0.0 | 0.00 | 0.00 | 0.00 | 72 | 1008.5 |
| 20260831024523 | 58 | 263 | 0.0 | 2.0 | 0.00 | 0.00 | 0.00 | 71 | 1008.4 |
| 20260831024024 | 58 | 264 | 0.0 | 2.0 | 0.00 | 0.00 | 0.00 | 70 | 1008.3 |
| 20260831023520 | 59 | 264 | 1.0 | 2.0 | 0.00 | 0.00 | 0.00 | 70 | 1008.2 |
| 20260831023029 | 59 | 263 | 0.0 | 2.0 | 0.00 | 0.00 | 0.00 | 70 | 1008.3 |
| 20260831022519 | 59 | 264 | 0.0 | 3.0 | 0.00 | 0.00 | 0.00 | 70 | 1008.2 |
| 20260831022019 | 59 | 264 | 0.0 | 3.0 | 0.00 | 0.00 | 0.00 | 70 | 1008.2 |
| 20260831021539 | 60 | 264 | 2.0 | 3.0 | 0.00 | 0.00 | 0.00 | 69 | 1007.8 |
| 20260831020517 | 60 | 264 | 2.0 | 4.0 | 0.00 | 0.00 | 0.00 | 68 | 1007.7 |
| 20260831020015 | 60 | 264 | 2.0 | 4.0 | 0.00 | 0.00 | 0.00 | 67 | 1007.5 |
| 20260831015519 | 61 | 265 | 2.0 | 4.0 | 0.00 | 0.00 | 0.00 | 66 | 1007.4 |
| 20260831015019 | 61 | 271 | 2.0 | 3.0 | 0.00 | 0.00 | 0.00 | 66 | 1007.6 |
| 20260831014515 | 62 | 271 | 2.0 | 4.0 | 0.00 | 0.00 | 0.00 | 65 | 1007.6 |
| 20260831014014 | 63 | 271 | 2.0 | 7.0 | 0.00 | 0.00 | 0.00 | 64 | 1007.5 |
| 20260831013514 | 63 | 271 | 2.0 | 7.0 | 0.00 | 0.00 | 0.00 | 63 | 1007.3 |
| 20260831013014 | 64 | 262 | 2.0 | 6.0 | 0.00 | 0.00 | 0.00 | 64 | 1007.1 |
| 20260831012514 | 64 | 253 | 4.0 | 6.0 | 0.00 | 0.00 | 0.00 | 64 | 1007.1 |
| 20260831012014 | 64 | 245 | 2.0 | 8.0 | 0.00 | 0.00 | 0.00 | 65 | 1007.2 |
| 20260831011513 | 65 | 229 | 7.0 | 12.0 | 0.00 | 0.00 | 0.00 | 64 | 1007.2 |
| 20260831010516 | 65 | 242 | 8.0 | 13.0 | 0.00 | 0.00 | 0.00 | 64 | 1007.0 |
| 20260831010032 | 65 | 230 | 8.0 | 13.0 | 0.00 | 0.00 | 0.00 | 65 | 1007.0 |
| 20260831005515 | 65 | 223 | 9.0 | 15.0 | 0.00 | 0.00 | 0.00 | 65 | 1007.0 |
| 20260831005014 | 65 | 227 | 9.0 | 15.0 | 0.00 | 0.00 | 0.00 | 64 | 1007.0 |
| 20260831004618 | 65 | 234 | 11.0 | 15.0 | 0.00 | 0.00 | 0.00 | 64 | 1006.6 |
| 20260831004014 | 65 | 228 | 10.0 | 13.0 | 0.00 | 0.00 | 0.00 | 64 | 1006.7 |
| 20260831003514 | 65 | 228 | 7.0 | 12.0 | 0.00 | 0.00 | 0.00 | 65 | 1006.6 |
| 20260831003013 | 66 | 223 | 8.0 | 12.0 | 0.00 | 0.00 | 0.00 | 65 | 1006.6 |
| 20260831002514 | 66 | 236 | 8.0 | 15.0 | 0.00 | 0.00 | 0.00 | 66 | 1006.9 |
| 20260831002014 | 66 | 218 | 10.0 | 15.0 | 0.00 | 0.00 | 0.00 | 66 | 1006.9 |
| 20260831001527 | 66 | 227 | 8.0 | 14.0 | 0.00 | 0.00 | 0.00 | 67 | 1006.8 |
| 20260831000516 | 66 | 233 | 8.0 | 14.0 | 0.00 | 0.00 | 0.00 | 68 | 1006.9 |
| 20260831000016 | 64 | 237 | 7.0 | 10.0 | 0.00 | 0.00 | 0.00 | 70 | 1006.8 |
| 20260830235516 | 63 | 202 | 6.0 | 10.0 | 0.00 | 0.00 | 0.00 | 72 | 1006.8 |
| 20260830235017 | 63 | 236 | 6.0 | 10.0 | 0.00 | 0.00 | 0.00 | 74 | 1007.0 |
| 20260830234516 | 63 | 213 | 5.0 | 8.0 | 0.00 | 0.00 | 0.00 | 75 | 1007.1 |
| 20260830234019 | 62 | 226 | 5.0 | 7.0 | 0.00 | 0.00 | 0.00 | 75 | 1007.0 |
| 20260830233518 | 62 | 221 | 3.0 | 7.0 | 0.00 | 0.00 | 0.00 | 75 | 1007.1 |
| 20260830233016 | 62 | 235 | 3.0 | 6.0 | 0.00 | 0.00 | 0.00 | 76 | 1007.2 |
| 20260830232520 | 62 | 235 | 2.0 | 6.0 | 0.00 | 0.00 | 0.00 | 76 | 1007.3 |
| 20260830232016 | 62 | 235 | 3.0 | 6.0 | 0.00 | 0.00 | 0.00 | 75 | 1007.2 |
| 20260830231526 | 62 | 203 | 2.0 | 7.0 | 0.00 | 0.00 | 0.00 | 77 | 1007.2 |
| 20260830230513 | 62 | 167 | 0.0 | 6.0 | 0.00 | 0.00 | 0.00 | 77 | 1006.8 |
| 20260830230013 | 62 | 167 | 4.0 | 6.0 | 0.00 | 0.00 | 0.00 | 76 | 1006.6 |
| 20260830225513 | 62 | 194 | 0.0 | 4.0 | 0.00 | 0.00 | 0.00 | 74 | 1006.7 |
| 20260830225013 | 62 | 194 | 1.0 | 8.0 | 0.00 | 0.00 | 0.00 | 73 | 1006.4 |
| 20260830224513 | 62 | 236 | 2.0 | 14.0 | 0.00 | 0.00 | 0.00 | 72 | 1007.1 |
| 20260830224013 | 63 | 261 | 8.0 | 19.0 | 0.00 | 0.00 | 0.00 | 73 | 1008.1 |
| 20260830223513 | 64 | 238 | 8.0 | 19.0 | 0.00 | 0.00 | 0.00 | 70 | 1008.3 |
| 20260830223017 | 66 | 205 | 9.0 | 17.0 | 0.00 | 0.00 | 0.00 | 66 | 1008.5 |
| 20260830222511 | 66 | 275 | 7.0 | 21.0 | 0.00 | 0.00 | 0.00 | 62 | 1007.8 |
| 20260830222013 | 66 | 280 | 11.0 | 26.0 | 0.00 | 0.00 | 0.00 | 62 | 1008.5 |
| 20260830221511 | 68 | 238 | 14.0 | 20.0 | 0.00 | 0.00 | 0.00 | 59 | 1008.6 |
| 20260830220512 | 68 | 274 | 9.0 | 22.0 | 0.00 | 0.00 | 0.00 | 57 | 1008.1 |
| 20260830220013 | 68 | 235 | 8.0 | 22.0 | 0.00 | 0.00 | 0.00 | 57 | 1007.9 |
| 20260830215510 | 68 | 265 | 10.0 | 20.0 | 0.00 | 0.00 | 0.00 | 55 | 1007.5 |
| 20260830215009 | 68 | 242 | 12.0 | 23.0 | 0.00 | 0.00 | 0.00 | 56 | 1007.0 |
| 20260830214510 | 69 | 276 | 12.0 | 23.0 | 0.00 | 0.00 | 0.00 | 56 | 1007.1 |
| 20260830214008 | 70 | 317 | 11.0 | 23.0 | 0.00 | 0.00 | 0.00 | 57 | 1007.1 |
| 20260830213512 | 69 | 291 | 11.0 | 27.0 | 0.00 | 0.00 | 0.00 | 58 | 1006.7 |
| 20260830213010 | 69 | 296 | 12.0 | 27.0 | 0.00 | 0.00 | 0.00 | 58 | 1006.8 |
| 20260830212508 | 69 | 269 | 11.0 | 26.0 | 0.00 | 0.00 | 0.00 | 58 | 1006.7 |
| 20260830212009 | 69 | 269 | 14.0 | 24.0 | 0.00 | 0.00 | 0.00 | 56 | 1006.7 |
| 20260830211516 | 69 | 276 | 12.0 | 24.0 | 0.00 | 0.00 | 0.00 | 53 | 1006.6 |
| 20260830210503 | 71 | 287 | 11.0 | 24.0 | 0.00 | 0.00 | 0.00 | 55 | 1006.6 |
| 20260830210007 | 71 | 338 | 14.0 | 24.0 | 0.00 | 0.00 | 0.00 | 55 | 1006.7 |
| 20260830205503 | 71 | 279 | 10.0 | 22.0 | 0.00 | 0.00 | 0.00 | 58 | 1006.6 |
| 20260830205101 | 70 | 278 | 11.0 | 22.0 | 0.00 | 0.00 | 0.00 | 60 | 1006.6 |
| 20260830204600 | 70 | 277 | 9.0 | 20.0 | 0.00 | 0.00 | 0.00 | 64 | 1006.3 |
| 20260830204503 | 70 | 291 | 9.0 | 21.0 | 0.00 | 0.00 | 0.00 | 64 | 1006.5 |
| 20260830204102 | 70 | 317 | 9.0 | 21.0 | 0.00 | 0.00 | 0.00 | 64 | 1006.4 |
| 20260830203600 | 71 | 314 | 10.0 | 23.0 | 0.00 | 0.00 | 0.00 | 65 | 1006.5 |
| 20260830203116 | 72 | 294 | 11.0 | 23.0 | 0.00 | 0.00 | 0.00 | 64 | 1005.9 |
| 20260830202600 | 72 | 281 | 8.0 | 17.0 | 0.00 | 0.00 | 0.00 | 67 | 1005.4 |
| 20260830202057 | 71 | 30 | 5.0 | 11.0 | 0.00 | 0.00 | 0.00 | 71 | 1005.4 |
| 20260830201559 | 69 | 234 | 2.0 | 10.0 | 0.00 | 0.00 | 0.00 | 74 | 1005.3 |
| 20260830200557 | 70 | 313 | 4.0 | 12.0 | 0.00 | 0.00 | 0.00 | 70 | 1005.4 |
| 20260830195556 | 72 | 299 | 4.0 | 13.0 | 0.00 | 0.00 | 0.00 | 62 | 1005.4 |
| 20260830195057 | 74 | 269 | 6.0 | 14.0 | 0.00 | 0.00 | 0.00 | 60 | 1005.1 |
| 20260830194555 | 75 | 277 | 6.0 | 15.0 | 0.00 | 0.00 | 0.00 | 61 | 1004.8 |
| 20260830194059 | 75 | 275 | 7.0 | 15.0 | 0.00 | 0.00 | 0.00 | 62 | 1004.5 |
| 20260830193553 | 75 | 306 | 8.0 | 18.0 | 0.00 | 0.00 | 0.00 | 63 | 1004.5 |
| 20260830193055 | 75 | 264 | 6.0 | 16.0 | 0.00 | 0.00 | 0.00 | 62 | 1004.5 |
| 20260830192553 | 76 | 268 | 6.0 | 17.0 | 0.00 | 0.00 | 0.00 | 62 | 1004.6 |
| 20260830192053 | 76 | 284 | 9.0 | 17.0 | 0.00 | 0.00 | 0.00 | 60 | 1004.2 |
| 20260830191558 | 76 | 265 | 8.0 | 16.0 | 0.00 | 0.00 | 0.00 | 60 | 1004.3 |
| 20260830190554 | 77 | 286 | 8.0 | 16.0 | 0.00 | 0.00 | 0.00 | 58 | 1004.4 |
| 20260830190053 | 78 | 317 | 7.0 | 16.0 | 0.00 | 0.00 | 0.00 | 57 | 1004.7 |
| 20260830185556 | 79 | 300 | 7.0 | 16.0 | 0.00 | 0.00 | 0.00 | 57 | 1004.5 |
| 20260830185053 | 80 | 294 | 6.0 | 14.0 | 0.00 | 0.00 | 0.00 | 57 | 1004.3 |
| 20260830184552 | 79 | 315 | 7.0 | 16.0 | 0.00 | 0.00 | 0.00 | 56 | 1004.3 |
| 20260830184051 | 79 | 257 | 8.0 | 16.0 | 0.00 | 0.00 | 0.00 | 57 | 1004.2 |
| 20260830183554 | 79 | 276 | 7.0 | 12.0 | 0.00 | 0.00 | 0.00 | 56 | 1004.1 |
| 20260830183108 | 80 | 278 | 5.0 | 13.0 | 0.00 | 0.00 | 0.00 | 55 | 1004.2 |
| 20260830182551 | 80 | 254 | 8.0 | 16.0 | 0.00 | 0.00 | 0.00 | 55 | 1004.3 |
| 20260830182051 | 80 | 291 | 8.0 | 16.0 | 0.00 | 0.00 | 0.00 | 57 | 1004.1 |
| 20260830181557 | 80 | 256 | 6.0 | 15.0 | 0.00 | 0.00 | 0.00 | 58 | 1004.0 |
| 20260830180554 | 81 | 271 | 6.0 | 20.0 | 0.00 | 0.00 | 0.00 | 57 | 1003.9 |
| 20260830180107 | 81 | 259 | 8.0 | 20.0 | 0.00 | 0.00 | 0.00 | 58 | 1003.6 |
| 20260830175554 | 80 | 214 | 5.0 | 11.0 | 0.00 | 0.00 | 0.00 | 59 | 1003.7 |
| 20260830175052 | 80 | 323 | 4.0 | 10.0 | 0.00 | 0.00 | 0.00 | 59 | 1003.4 |
| 20260830174555 | 78 | 339 | 3.0 | 10.0 | 0.00 | 0.00 | 0.00 | 61 | 1003.4 |
| 20260830174053 | 78 | 355 | 3.0 | 11.0 | 0.00 | 0.00 | 0.00 | 61 | 1003.7 |
| 20260830173550 | 78 | 320 | 3.0 | 11.0 | 0.00 | 0.00 | 0.00 | 61 | 1003.7 |
| 20260830173115 | 78 | 262 | 3.0 | 11.0 | 0.00 | 0.00 | 0.00 | 62 | 1003.6 |
| 20260830172551 | 78 | 347 | 4.0 | 11.0 | 0.00 | 0.00 | 0.00 | 62 | 1003.5 |
| 20260830172051 | 78 | 230 | 5.0 | 14.0 | 0.00 | 0.00 | 0.00 | 61 | 1003.6 |
| 20260830171600 | 78 | 341 | 7.0 | 14.0 | 0.00 | 0.00 | 0.00 | 61 | 1003.6 |
| 20260830170548 | 78 | 275 | 7.0 | 13.0 | 0.00 | 0.00 | 0.00 | 56 | 1003.5 |
| 20260830170049 | 79 | 309 | 6.0 | 12.0 | 0.00 | 0.00 | 0.00 | 56 | 1003.4 |
| 20260830165550 | 79 | 270 | 6.0 | 13.0 | 0.00 | 0.00 | 0.00 | 57 | 1003.5 |
| 20260830165048 | 80 | 282 | 8.0 | 15.0 | 0.00 | 0.00 | 0.00 | 55 | 1003.4 |
| 20260830164548 | 80 | 265 | 7.0 | 15.0 | 0.00 | 0.00 | 0.00 | 53 | 1003.4 |
| 20260830164047 | 79 | 245 | 8.0 | 16.0 | 0.00 | 0.00 | 0.00 | 51 | 1003.4 |
| 20260830163546 | 78 | 231 | 9.0 | 16.0 | 0.00 | 0.00 | 0.00 | 51 | 1003.3 |
| 20260830163044 | 77 | 234 | 10.0 | 16.0 | 0.00 | 0.00 | 0.00 | 51 | 1003.2 |
| 20260830162544 | 77 | 229 | 11.0 | 16.0 | 0.00 | 0.00 | 0.00 | 50 | 1003.4 |
| 20260830162045 | 77 | 237 | 12.0 | 19.0 | 0.00 | 0.00 | 0.00 | 50 | 1003.3 |
| 20260830161552 | 77 | 233 | 11.0 | 19.0 | 0.00 | 0.00 | 0.00 | 50 | 1003.3 |
| 20260830160540 | 77 | 232 | 12.0 | 19.0 | 0.00 | 0.00 | 0.00 | 50 | 1003.3 |
| 20260830160039 | 77 | 220 | 10.0 | 17.0 | 0.00 | 0.00 | 0.00 | 52 | 1003.3 |
| 20260830155538 | 76 | 221 | 11.0 | 17.0 | 0.00 | 0.00 | 0.00 | 53 | 1003.0 |
| 20260830155038 | 75 | 215 | 10.0 | 17.0 | 0.00 | 0.00 | 0.00 | 54 | 1003.1 |
| 20260830154537 | 75 | 213 | 13.0 | 18.0 | 0.00 | 0.00 | 0.00 | 54 | 1003.2 |
| 20260830154037 | 75 | 227 | 11.0 | 18.0 | 0.00 | 0.00 | 0.00 | 54 | 1003.1 |
| 20260830153535 | 74 | 234 | 13.0 | 18.0 | 0.00 | 0.00 | 0.00 | 55 | 1003.4 |
| 20260830153035 | 74 | 221 | 11.0 | 16.0 | 0.00 | 0.00 | 0.00 | 56 | 1003.3 |
| 20260830152532 | 73 | 223 | 11.0 | 17.0 | 0.00 | 0.00 | 0.00 | 57 | 1003.3 |
| 20260830152031 | 73 | 208 | 10.0 | 17.0 | 0.00 | 0.00 | 0.00 | 59 | 1003.3 |
| 20260830151530 | 72 | 207 | 9.0 | 13.0 | 0.00 | 0.00 | 0.00 | 59 | 1003.5 |
| 20260830150531 | 71 | 211 | 11.0 | 14.0 | 0.00 | 0.00 | 0.00 | 64 | 1003.4 |
| 20260830150031 | 70 | 228 | 9.0 | 13.0 | 0.00 | 0.00 | 0.00 | 69 | 1003.6 |
| 20260830145530 | 69 | 180 | 8.0 | 12.0 | 0.00 | 0.00 | 0.00 | 71 | 1003.6 |
| 20260830145030 | 69 | 214 | 8.0 | 12.0 | 0.00 | 0.00 | 0.00 | 73 | 1003.6 |
| 20260830144533 | 69 | 203 | 6.0 | 13.0 | 0.00 | 0.00 | 0.00 | 75 | 1003.5 |
| 20260830144028 | 69 | 192 | 8.0 | 13.0 | 0.00 | 0.00 | 0.00 | 75 | 1003.6 |
| 20260830143529 | 68 | 206 | 8.0 | 11.0 | 0.00 | 0.00 | 0.00 | 76 | 1003.6 |
| 20260830143030 | 68 | 190 | 7.0 | 10.0 | 0.00 | 0.00 | 0.00 | 78 | 1003.5 |
| 20260830142528 | 67 | 211 | 5.0 | 10.0 | 0.00 | 0.00 | 0.00 | 80 | 1003.7 |
| 20260830142028 | 67 | 201 | 5.0 | 10.0 | 0.00 | 0.00 | 0.00 | 81 | 1003.7 |
| 20260830141529 | 67 | 201 | 5.0 | 9.0 | 0.00 | 0.00 | 0.00 | 82 | 1003.8 |
| 20260830140530 | 65 | 198 | 5.0 | 9.0 | 0.00 | 0.00 | 0.00 | 86 | 1003.8 |
| 20260830140026 | 65 | 195 | 5.0 | 8.0 | 0.00 | 0.00 | 0.00 | 86 | 1003.6 |
| 20260830135524 | 65 | 190 | 5.0 | 8.0 | 0.00 | 0.00 | 0.00 | 87 | 1003.7 |
| 20260830135029 | 64 | 188 | 4.0 | 8.0 | 0.00 | 0.00 | 0.00 | 89 | 1003.8 |
| 20260830134538 | 64 | 180 | 5.0 | 7.0 | 0.00 | 0.00 | 0.00 | 90 | 1003.8 |
| 20260830134023 | 63 | 175 | 4.0 | 6.0 | 0.00 | 0.00 | 0.00 | 91 | 1003.6 |
| 20260830133524 | 63 | 163 | 4.0 | 7.0 | 0.00 | 0.00 | 0.00 | 92 | 1003.5 |
| 20260830133027 | 63 | 55 | 2.0 | 4.0 | 0.00 | 0.00 | 0.00 | 92 | 1003.6 |
| 20260830132524 | 63 | 49 | 0.0 | 3.0 | 0.00 | 0.00 | 0.00 | 92 | 1003.7 |
| 20260830132023 | 62 | 44 | 0.0 | 0.0 | 0.00 | 0.00 | 0.00 | 92 | 1003.7 |
| 20260830131524 | 62 | 44 | 0.0 | 0.0 | 0.00 | 0.00 | 0.00 | 92 | 1003.7 |
| 20260830130523 | 61 | 44 | 0.0 | 0.0 | 0.00 | 0.00 | 0.00 | 91 | 1003.8 |
| 20260830130021 | 61 | 44 | 0.0 | 0.0 | 0.00 | 0.00 | 0.00 | 90 | 1003.9 |
| 20260830125521 | 61 | 44 | 0.0 | 0.0 | 0.00 | 0.00 | 0.00 | 89 | 1003.8 |
| 20260830125021 | 61 | 44 | 0.0 | 0.0 | 0.00 | 0.00 | 0.00 | 89 | 1003.9 |
| 20260830124522 | 61 | 44 | 0.0 | 0.0 | 0.00 | 0.00 | 0.00 | 89 | 1004.0 |
| 20260830124020 | 62 | 44 | 0.0 | 0.0 | 0.00 | 0.00 | 0.00 | 89 | 1003.9 |
| 20260830123520 | 62 | 44 | 0.0 | 0.0 | 0.00 | 0.00 | 0.00 | 90 | 1004.0 |
| 20260830123021 | 62 | 44 | 0.0 | 0.0 | 0.00 | 0.00 | 0.00 | 90 | 1004.1 |
| 20260830122520 | 62 | 44 | 0.0 | 0.0 | 0.00 | 0.00 | 0.00 | 91 | 1004.1 |
| 20260830122019 | 62 | 44 | 0.0 | 0.0 | 0.00 | 0.00 | 0.00 | 91 | 1004.1 |
| 20260830121519 | 62 | 44 | 0.0 | 1.0 | 0.00 | 0.00 | 0.00 | 89 | 1004.2 |
| 20260830120521 | 61 | 44 | 0.0 | 0.0 | 0.00 | 0.00 | 0.00 | 90 | 1004.2 |
| 20260830120022 | 61 | 44 | 0.0 | 0.0 | 0.00 | 0.00 | 0.00 | 90 | 1004.1 |
| 20260830115521 | 61 | 44 | 0.0 | 0.0 | 0.00 | 0.00 | 0.00 | 89 | 1004.2 |
| 20260830115024 | 61 | 44 | 0.0 | 0.0 | 0.00 | 0.00 | 0.00 | 90 | 1004.1 |
| 20260830114521 | 61 | 44 | 0.0 | 0.0 | 0.00 | 0.00 | 0.00 | 89 | 1003.9 |
| 20260830114020 | 61 | 44 | 0.0 | 0.0 | 0.00 | 0.00 | 0.00 | 89 | 1004.0 |
| 20260830113520 | 61 | 44 | 0.0 | 1.0 | 0.00 | 0.00 | 0.00 | 89 | 1003.9 |
| 20260830113024 | 61 | 44 | 0.0 | 1.0 | 0.00 | 0.00 | 0.00 | 89 | 1003.9 |
| 20260830112519 | 61 | 44 | 0.0 | 0.0 | 0.00 | 0.00 | 0.00 | 90 | 1004.0 |
| 20260830112021 | 61 | 44 | 0.0 | 1.0 | 0.00 | 0.00 | 0.00 | 89 | 1003.8 |
| 20260830111517 | 62 | 44 | 0.0 | 2.0 | 0.00 | 0.00 | 0.00 | 89 | 1003.8 |
| 20260830110515 | 62 | 44 | 1.0 | 3.0 | 0.00 | 0.00 | 0.00 | 90 | 1003.6 |
| 20260830110016 | 63 | 44 | 0.0 | 2.0 | 0.00 | 0.00 | 0.00 | 90 | 1003.6 |
| 20260830105513 | 63 | 44 | 0.0 | 3.0 | 0.00 | 0.00 | 0.00 | 90 | 1003.7 |
| 20260830105012 | 64 | 44 | 1.0 | 3.0 | 0.00 | 0.00 | 0.00 | 90 | 1003.3 |
| 20260830104510 | 64 | 44 | 0.0 | 1.0 | 0.00 | 0.00 | 0.00 | 90 | 1003.3 |
| 20260830104010 | 65 | 44 | 0.0 | 2.0 | 0.00 | 0.00 | 0.00 | 90 | 1003.3 |
| 20260830103509 | 65 | 44 | 0.0 | 3.0 | 0.00 | 0.00 | 0.00 | 90 | 1003.3 |
| 20260830103009 | 66 | 44 | 0.0 | 3.0 | 0.00 | 0.00 | 0.00 | 90 | 1003.1 |
| 20260830102509 | 66 | 44 | 1.0 | 5.0 | 0.00 | 0.00 | 0.00 | 90 | 1003.0 |
| 20260830102007 | 66 | 44 | 1.0 | 5.0 | 0.00 | 0.00 | 0.00 | 90 | 1003.1 |
| 20260830101507 | 66 | 47 | 3.0 | 5.0 | 0.00 | 0.00 | 0.00 | 90 | 1003.0 |
| 20260830100506 | 66 | 39 | 2.0 | 6.0 | 0.00 | 0.00 | 0.00 | 90 | 1003.0 |
| 20260830100007 | 66 | 38 | 2.0 | 6.0 | 0.00 | 0.00 | 0.00 | 89 | 1003.1 |
| 20260830095505 | 66 | 38 | 3.0 | 5.0 | 0.00 | 0.00 | 0.00 | 89 | 1003.2 |
| 20260830095005 | 65 | 51 | 0.0 | 4.0 | 0.00 | 0.00 | 0.00 | 87 | 1003.1 |
| 20260830094504 | 65 | 54 | 0.0 | 3.0 | 0.00 | 0.00 | 0.00 | 86 | 1003.2 |
| 20260830094004 | 65 | 54 | 2.0 | 3.0 | 0.00 | 0.00 | 0.00 | 85 | 1003.2 |
| 20260830093503 | 65 | 54 | 2.0 | 3.0 | 0.00 | 0.00 | 0.00 | 84 | 1003.1 |
| 20260830093003 | 65 | 54 | 2.0 | 3.0 | 0.00 | 0.00 | 0.00 | 83 | 1003.3 |
| 20260830092503 | 65 | 54 | 0.0 | 2.0 | 0.00 | 0.00 | 0.00 | 83 | 1003.2 |
| 20260830092003 | 65 | 54 | 0.0 | 2.0 | 0.00 | 0.00 | 0.00 | 83 | 1003.2 |
| 20260830091502 | 65 | 54 | 0.0 | 1.0 | 0.00 | 0.00 | 0.00 | 82 | 1003.1 |
| 20260830090601 | 66 | 54 | 1.0 | 3.0 | 0.00 | 0.00 | 0.00 | 80 | 1003.1 |
| 20260830090103 | 67 | 54 | 1.0 | 4.0 | 0.00 | 0.00 | 0.00 | 79 | 1002.9 |
| 20260830085557 | 68 | 54 | 2.0 | 3.0 | 0.00 | 0.00 | 0.00 | 81 | 1003.0 |
| 20260830085058 | 68 | 55 | 0.0 | 4.0 | 0.00 | 0.00 | 0.00 | 82 | 1003.0 |
| 20260830084556 | 69 | 55 | 2.0 | 4.0 | 0.00 | 0.00 | 0.00 | 82 | 1002.9 |
| 20260830084055 | 69 | 55 | 1.0 | 3.0 | 0.00 | 0.00 | 0.00 | 82 | 1003.0 |
| 20260830083557 | 69 | 55 | 1.0 | 3.0 | 0.00 | 0.00 | 0.00 | 81 | 1002.9 |
| 20260830083055 | 69 | 55 | 2.0 | 3.0 | 0.00 | 0.00 | 0.00 | 81 | 1002.9 |
| 20260830082653 | 70 | 55 | 2.0 | 3.0 | 0.00 | 0.00 | 0.00 | 81 | 1002.8 |
| 20260830082051 | 70 | 55 | 1.0 | 4.0 | 0.00 | 0.00 | 0.00 | 80 | 1003.0 |
| 20260830081551 | 70 | 55 | 2.0 | 4.0 | 0.00 | 0.00 | 0.00 | 80 | 1002.9 |
| 20260830080551 | 70 | 57 | 1.0 | 3.0 | 0.00 | 0.00 | 0.00 | 79 | 1002.9 |
| 20260830080050 | 71 | 57 | 0.0 | 3.0 | 0.00 | 0.00 | 0.00 | 79 | 1003.1 |
| 20260830075550 | 71 | 57 | 0.0 | 3.0 | 0.00 | 0.00 | 0.00 | 78 | 1003.0 |
| 20260830075050 | 71 | 53 | 0.0 | 2.0 | 0.00 | 0.00 | 0.00 | 78 | 1003.2 |
| 20260830074629 | 71 | 53 | 0.0 | 3.0 | 0.00 | 0.00 | 0.00 | 77 | 1003.3 |
| 20260830074047 | 71 | 53 | 1.0 | 4.0 | 0.00 | 0.00 | 0.00 | 76 | 1003.2 |
| 20260830073546 | 72 | 44 | 1.0 | 4.0 | 0.00 | 0.00 | 0.00 | 75 | 1003.4 |
| 20260830073053 | 72 | 44 | 1.0 | 3.0 | 0.00 | 0.00 | 0.00 | 75 | 1003.5 |
| 20260830072545 | 72 | 44 | 0.0 | 4.0 | 0.00 | 0.00 | 0.00 | 74 | 1003.6 |
| 20260830072045 | 72 | 44 | 2.0 | 5.0 | 0.00 | 0.00 | 0.00 | 74 | 1003.8 |
| 20260830071549 | 72 | 42 | 2.0 | 6.0 | 0.00 | 0.00 | 0.00 | 74 | 1003.8 |
| 20260830070549 | 72 | 44 | 3.0 | 6.0 | 0.00 | 0.00 | 0.00 | 74 | 1003.9 |
| 20260830070053 | 72 | 64 | 1.0 | 6.0 | 0.00 | 0.00 | 0.00 | 74 | 1003.9 |
| 20260830065546 | 72 | 59 | 3.0 | 7.0 | 0.00 | 0.00 | 0.00 | 73 | 1003.9 |
| 20260830065045 | 72 | 54 | 2.0 | 7.0 | 0.00 | 0.00 | 0.00 | 73 | 1003.8 |
| 20260830064545 | 72 | 50 | 3.0 | 6.0 | 0.00 | 0.00 | 0.00 | 73 | 1004.0 |
| 20260830064045 | 72 | 49 | 2.0 | 6.0 | 0.00 | 0.00 | 0.00 | 73 | 1004.0 |
| 20260830063543 | 72 | 57 | 2.0 | 6.0 | 0.00 | 0.00 | 0.00 | 73 | 1004.1 |
| 20260830063042 | 72 | 55 | 2.0 | 7.0 | 0.00 | 0.00 | 0.00 | 74 | 1003.8 |
| 20260830062543 | 72 | 42 | 3.0 | 7.0 | 0.00 | 0.00 | 0.00 | 74 | 1003.8 |
| 20260830062042 | 72 | 20 | 2.0 | 6.0 | 0.00 | 0.00 | 0.00 | 73 | 1003.8 |
| 20260830061541 | 72 | 51 | 2.0 | 6.0 | 0.00 | 0.00 | 0.00 | 72 | 1003.7 |
| 20260830060539 | 72 | 45 | 1.0 | 5.0 | 0.00 | 0.00 | 0.00 | 69 | 1004.0 |
| 20260830060038 | 73 | 45 | 1.0 | 5.0 | 0.00 | 0.00 | 0.00 | 67 | 1004.0 |
| 20260830055538 | 73 | 44 | 0.0 | 4.0 | 0.00 | 0.00 | 0.00 | 66 | 1004.0 |
| 20260830055038 | 73 | 44 | 0.0 | 4.0 | 0.00 | 0.00 | 0.00 | 65 | 1004.0 |
| 20260830054546 | 74 | 44 | 1.0 | 4.0 | 0.00 | 0.00 | 0.00 | 64 | 1004.0 |
| 20260830054037 | 74 | 44 | 2.0 | 4.0 | 0.00 | 0.00 | 0.00 | 62 | 1003.9 |
| 20260830053537 | 74 | 45 | 1.0 | 4.0 | 0.00 | 0.00 | 0.00 | 61 | 1004.0 |
| 20260830053042 | 74 | 43 | 2.0 | 9.0 | 0.00 | 0.00 | 0.00 | 60 | 1004.0 |
| 20260830052536 | 74 | 46 | 3.0 | 9.0 | 0.00 | 0.00 | 0.00 | 60 | 1004.1 |
| 20260830052036 | 74 | 48 | 3.0 | 8.0 | 0.00 | 0.00 | 0.00 | 59 | 1004.0 |
| 20260830051545 | 73 | 102 | 3.0 | 8.0 | 0.00 | 0.00 | 0.00 | 61 | 1004.0 |
| 20260830050537 | 72 | 17 | 0.0 | 3.0 | 0.00 | 0.00 | 0.00 | 55 | 1004.1 |
| 20260830050038 | 72 | 17 | 1.0 | 4.0 | 0.00 | 0.00 | 0.00 | 54 | 1004.3 |
| 20260830045536 | 73 | 17 | 2.0 | 5.0 | 0.00 | 0.00 | 0.00 | 54 | 1004.1 |
| 20260830045036 | 73 | 15 | 3.0 | 5.0 | 0.00 | 0.00 | 0.00 | 54 | 1004.0 |
| 20260830044541 | 74 | 17 | 3.0 | 5.0 | 0.00 | 0.00 | 0.00 | 52 | 1004.2 |
| 20260830044036 | 74 | 26 | 1.0 | 4.0 | 0.00 | 0.00 | 0.00 | 53 | 1004.1 |
| 20260830043535 | 75 | 19 | 2.0 | 5.0 | 0.00 | 0.00 | 0.00 | 51 | 1004.1 |
| 20260830043036 | 75 | 17 | 2.0 | 5.0 | 0.00 | 0.00 | 0.00 | 52 | 1004.1 |
| 20260830042535 | 75 | 355 | 1.0 | 4.0 | 0.00 | 0.00 | 0.00 | 52 | 1004.1 |
| 20260830042036 | 75 | 355 | 2.0 | 6.0 | 0.00 | 0.00 | 0.00 | 52 | 1004.0 |
| 20260830041604 | 75 | 349 | 1.0 | 6.0 | 0.00 | 0.00 | 0.00 | 51 | 1004.2 |
| 20260830040535 | 75 | 15 | 3.0 | 5.0 | 0.00 | 0.00 | 0.00 | 50 | 1004.2 |
| 20260830040044 | 76 | 5 | 2.0 | 5.0 | 0.00 | 0.00 | 0.00 | 49 | 1004.1 |
| 20260830035535 | 76 | 13 | 2.0 | 4.0 | 0.00 | 0.00 | 0.00 | 48 | 1004.2 |
| 20260830035034 | 76 | 13 | 0.0 | 0.0 | 0.00 | 0.00 | 0.00 | 48 | 1004.1 |
| 20260830034535 | 76 | 13 | 0.0 | 0.0 | 0.00 | 0.00 | 0.00 | 47 | 1004.1 |
| 20260830034035 | 76 | 13 | 0.0 | 2.0 | 0.00 | 0.00 | 0.00 | 46 | 1004.0 |
| 20260830033534 | 76 | 13 | 0.0 | 5.0 | 0.00 | 0.00 | 0.00 | 46 | 1004.0 |
| 20260830033036 | 76 | 12 | 3.0 | 5.0 | 0.00 | 0.00 | 0.00 | 46 | 1004.5 |
| 20260830032533 | 77 | 340 | 0.0 | 3.0 | 0.00 | 0.00 | 0.00 | 45 | 1004.0 |
| 20260830032035 | 77 | 38 | 0.0 | 2.0 | 0.00 | 0.00 | 0.00 | 44 | 1004.0 |
| 20260830031533 | 78 | 42 | 1.0 | 5.0 | 0.00 | 0.00 | 0.00 | 44 | 1004.0 |